This is the latest recevied weather packets stored in our database for station/object K7YVO. If no packets are shown the sender has not sent any weather packets the latest 10 day(s).
| Time | Temp. | Humidity | Pressure | Rain* | Wind** | Luminosity | Snow |
|---|---|---|---|---|---|---|---|
| 1778008918 | 13.89° C | 86% | 1018.8 hPa | 0 mm | - | 179 W/m² | - |
| 1778008616 | 13.89° C | 85% | 1018.7 hPa | 0 mm | - | 151 W/m² | - |
| 1778008314 | 13.33° C | 86% | 1018.8 hPa | 0 mm | - | 140 W/m² | - |
| 1778008010 | 13.33° C | 86% | 1018.8 hPa | 0 mm | - | 142 W/m² | - |
| 1778007710 | 13.33° C | 86% | 1018.6 hPa | 0 mm | - | 156 W/m² | - |
| 1778007407 | 13.33° C | 85% | 1018.8 hPa | 0 mm | - | 139 W/m² | - |
| 1778007103 | 13.33° C | 84% | 1018.8 hPa | 0 mm | - | 156 W/m² | - |
| 1778006800 | 13.33° C | 85% | 1018.6 hPa | 0 mm | - | 166 W/m² | - |
| 1778006497 | 13.33° C | 86% | 1018.8 hPa | 0 mm | - | 157 W/m² | - |
| 1778006194 | 13.33° C | 88% | 1018.7 hPa | 0 mm | - | 183 W/m² | - |
| 1778005892 | 12.78° C | 89% | 1018.9 hPa | 0 mm | - | 168 W/m² | - |
| 1778005587 | 12.78° C | 88% | 1018.9 hPa | 0 mm | - | 159 W/m² | - |
| 1778005285 | 12.78° C | 89% | 1018.8 hPa | 0 mm | - | 128 W/m² | - |
| 1778004981 | 12.78° C | 89% | 1018.8 hPa | 0 mm | - | 103 W/m² | - |
| 1778004679 | 12.78° C | 91% | 1018.8 hPa | 0 mm | - | 101 W/m² | - |
| 1778004374 | 12.78° C | 90% | 1018.8 hPa | 0 mm | - | 122 W/m² | - |
| 1778004072 | 12.22° C | 90% | 1018.8 hPa | 0 mm | - | 128 W/m² | - |
| 1778003768 | 12.22° C | 90% | 1018.7 hPa | 0 mm | - | 160 W/m² | - |
| 1778003464 | 12.22° C | 92% | 1018.7 hPa | 0 mm | - | 131 W/m² | - |
| 1778003161 | 11.67° C | 92% | 1018.8 hPa | 0 mm | - | 126 W/m² | - |
| 1778002857 | 12.22° C | 91% | 1018.7 hPa | 0 mm | - | 94 W/m² | - |
| 1778002554 | 11.67° C | 92% | 1018.7 hPa | 0 mm | - | 80 W/m² | - |
| 1778002251 | 12.22° C | 91% | 1018.7 hPa | 0 mm | - | 83 W/m² | - |
| 1778001948 | 12.22° C | 92% | 1018.7 hPa | 0 mm | - | 73 W/m² | - |
| 1778001645 | 12.22° C | 92% | 1018.6 hPa | 0 mm | - | 72 W/m² | - |
* Rain latest hour (hover to see other rain measurements)
** Current wind speed in m/s (hover to see current wind gust speed)